Regional Weather Roundup
Issued by NWS

Home | Current Version | Previous Version | Text Only | Print | Product List | Glossary Off
Versions: 1 2 3 4 5 6 7 8 9 10 11 12 13 14 15 16 17 18 19 20 21 22 23 24 25 26 27 28 29 30 31 32 33 34 35 36 37 38 39 40 41 42 43 44 45 46 47 48 49 50

690
ASUS44 KMEG 301300
RWRTN
TENNESSEE HOURLY STATE WEATHER ROUNDUP
NATIONAL WEATHER SERVICE MEMPHIS TN
800 AM CDT SAT APR 30 2016

TNZ002-004-019-021-049-052-054-088>092-301400-
WEST TENNESSEE

CITY           SKY/WX    TMP DP  RH WIND       PRES   REMARKS
MEMPHIS INTL   RAIN      65  62  90 W8G21     29.89R FOG
NWS MEMPHIS      N/A     64 N/A N/A MISG        N/A
JACKSON        LGT RAIN  64  62  93 W10G20    29.90R
DYERSBURG      CLOUDY    63  61  94 SE3         N/A
UNION CITY     PTSUNNY   61  61 100 CALM      29.88R
LEXINGTON      PTSUNNY   63  63 100 CALM      29.88S
$$

TNZ008-025-027-028-033-062-065-066-301400-
NORTH MIDDLE TENNESSEE

CITY           SKY/WX    TMP DP  RH WIND       PRES   REMARKS
NASHVILLE      LGT RAIN  64  61  90 E5        29.95R
CLARKSVILLE    CLOUDY    62  60  93 N3        29.92R FOG
COOKEVILLE     PTSUNNY   64  57  77 S6        29.96R
CROSSVILLE     CLOUDY    71  51  49 SE3       29.99R
$$

TNZ061-075-076-078-094-096-097-301400-
SOUTH MIDDLE TENNESSEE

CITY           SKY/WX    TMP DP  RH WIND       PRES   REMARKS
TULLAHOMA      MOSUNNY   64  61  88 SE3       29.95S
WINCHESTER     PTSUNNY   68  54  60 SE7       29.94S
MCMINNVILLE    CLOUDY    64  61  88 CALM      29.95S
COLUMBIA       PTSUNNY  N/A N/A N/A CALM      29.92S
SHELBYVILLE    CLOUDY    66  61  82 NW6       29.96R
$$

TNZ017-018-042-046-047-301400-
NORTHEAST TENNESSEE

CITY           SKY/WX    TMP DP  RH WIND       PRES   REMARKS
TRI CITIES     PTSUNNY   64  54  69 E5        30.01S
$$

TNZ012-013-036-069-073-074-301400-
CENTRAL EAST TENNESSEE

CITY           SKY/WX    TMP DP  RH WIND       PRES   REMARKS
KNOXVILLE      PTSUNNY   65  56  72 CALM      29.96R
OAK RIDGE      PTSUNNY   67  53  61 VRB3      29.98R
$$

TNZ083-085-099-301400-
SOUTHEAST TENNESSEE

CITY           SKY/WX    TMP DP  RH WIND       PRES   REMARKS
CHATTANOOGA    CLOUDY    66  60  81 CALM      29.97R
$$

SKY/WX REPORTED AS FAIR MEANS FEW OR NO CLOUDS BELOW
12 THOUSAND FEET.





USA.gov is the U.S. government's official web portal to all federal, state and local government web resources and services.